Wind_Speed
6 6 7 8 9 9 9 9 10 10 11 12 12 11 11 9 8 3 7 8 7 7 5 4 2 1 0 2 1 2 4 3 3 4 5 2 6 8 8 12 10 5 10 12 14
6 7 7 8 8 9 9 10 10 9 9 9 9 7 5 6 4 11 6 7 6 4 2 2 1 2 3 2 0 4 3 4 4 5 7 7 7 10 9 11 12 10 14 15 15
5 5 6 7 8 10 11 10 11 10 8 7 7 4 3 4 3 5 8 6 4 5 3 2 1 3 1 2 1 0 3 3 2 4 7 9 9 4 8 9 10 13 16 16 16
4 5 6 8 8 9 10 10 10 9 10 9 6 1 5 2 1 3 6 6 6 3 1 1 3 2 1 2 0 6 2 4 3 2 5 10 11 11 11 8 8 9 12 12 12
3 5 6 7 9 9 9 8 7 6 7 6 4 1 1 4 4 3 4 5 4 3 3 1 3 2 2 1 4 7 3 4 6 7 10 12 14 13 12 3 9 7 8 9 10
4 4 6 7 8 9 7 6 6 6 7 3 1 2 3 3 1 4 4 4 4 1 2 2 1 2 1 2 5 2 8 10 7 8 8 9 12 3 2 7 9 7 7 8 8
4 5 6 8 9 9 6 5 3 5 4 4 5 2 3 6 1 3 4 3 5 1 2 3 2 4 1 2 2 5 8 8 9 5 4 6 12 10 3 7 8 7 9 8 8
5 6 6 8 10 7 5 3 3 4 5 6 3 1 3 1 1 4 3 4 4 4 5 3 3 1 3 2 3 5 5 6 8 4 4 3 14 7 3 7 9 8 8 9 9
4 5 9 8 8 6 2 5 5 5 4 4 2 3 4 2 2 3 3 2 2 3 5 3 1 1 3 5 6 6 8 7 5 4 3 8 11 5 1 7 9 8 8 8 9
4 4 7 10 8 4 4 6 5 4 2 2 1 2 3 3 2 3 3 2 0 2 3 2 2 6 5 7 5 9 7 6 9 4 7 13 18 16 4 7 8 6 7 7 9
4 5 7 7 5 3 6 4 4 3 6 5 4 3 4 3 2 2 1 2 1 4 4 1 5 8 7 7 9 9 10 14 13 7 7 15 17 15 10 7 7 5 5 5 7
5 3 5 6 3 4 3 3 2 2 5 4 2 3 2 0 2 2 1 3 3 6 2 4 9 3 2 4 6 9 12 14 12 7 6 14 18 17 14 11 6 5 2 4 6
6 3 5 3 5 4 3 3 4 2 1 3 2 2 2 1 0 4 2 1 4 5 7 10 3 3 2 5 7 10 13 14 15 12 14 15 17 20 13 5 6 4 1 2 5
5 4 4 3 3 4 2 4 4 0 3 4 3 2 2 1 3 2 1 2 3 5 4 8 3 6 8 11 9 11 5 10 11 8 6 1 9 14 9 10 10 6 4 2 4
5 4 1 6 6 3 4 6 4 2 4 4 4 1 1 2 3 3 1 2 5 3 3 2 3 5 6 6 5 3 3 4 8 11 13 13 7 6 3 12 12 9 5 3 4
6 4 1 3 3 5 8 6 1 2 5 4 2 4 5 2 3 3 2 2 1 4 7 13 1 4 9 3 7 2 4 6 5 6 7 15 13 9 6 3 8 9 7 5 4
7 5 2 6 3 9 8 3 2 3 1 3 4 5 5 4 4 4 5 6 4 2 4 3 10 3 5 7 3 5 6 3 4 4 6 6 7 14 6 4 4 10 9 6 4
11 4 5 4 8 10 4 2 4 2 2 1 3 5 4 6 3 4 3 5 8 4 4 4 4 5 6 9 6 7 8 5 7 9 12 4 6 3 5 3 2 9 9 7 5
10 5 4 5 10 7 3 2 4 3 6 10 5 4 5 4 2 5 6 3 2 8 5 3 3 3 2 2 2 2 6 6 11 10 6 10 18 4 4 3 5 7 9 9 7
10 8 5 7 9 4 2 4 3 3 6 6 6 4 5 6 7 7 7 2 3 2 0 2 5 2 2 2 6 6 5 4 4 6 15 14 17 12 6 8 9 11 11 10 7
8 4 3 10 7 2 3 4 3 3 3 6 4 4 2 5 7 5 2 3 2 4 4 1 1 2 1 7 8 5 4 7 8 8 13 16 13 3 1 7 12 13 13 11 8
7 3 5 11 3 1 3 4 2 5 2 2 1 3 5 6 5 5 5 0 3 6 4 2 2 5 11 3 3 4 8 12 10 17 14 13 16 5 2 5 9 12 11 10 8
5 3 1 1 5 4 1 3 3 5 5 4 4 2 2 4 3 3 3 2 4 5 4 4 3 5 3 3 4 6 9 12 8 4 18 15 16 6 3 4 7 9 9 8 9
4 4 2 3 1 3 6 5 6 1 4 3 4 4 3 2 1 3 6 3 3 4 3 2 4 7 12 17 9 8 10 11 9 8 15 17 22 15 9 6 6 7 10 11 11
3 3 2 6 8 5 5 8 7 7 3 6 3 7 6 4 2 4 4 4 3 3 4 3 5 6 12 18 16 18 19 20 17 17 13 24 19 17 9 5 5 7 9 10 10
5 4 2 2 7 14 8 9 11 5 9 6 5 11 9 5 6 7 7 4 4 4 6 4 4 1 6 12 11 17 21 21 23 23 22 25 29 19 19 15 10 7 4 7 3
6 2 2 7 7 10 8 8 11 11 6 2 8 6 10 8 4 4 3 3 4 7 10 6 3 1 8 4 8 11 14 18 19 18 13 18 25 16 13 12 4 4 5 7 5
Wind_Direction
42 39 24 20 17 17 11 1 1 4 3 354 350 348 346 5 42 37 51 343 334 335 349 314 312 350 37 77 344 276 247 270 329 305 13 61 330 316 330 282 300 302 300 319 325
40 25 20 18 16 9 5 2 8 7 5 1 353 347 6 65 74 61 1 354 3 32 358 298 180 276 134 111 229 269 264 32 4 333 309 316 312 312 305 310 297 323 322 321 325
46 26 17 14 11 5 3 4 2 359 4 7 360 355 83 63 175 38 353 5 24 27 15 323 265 269 175 235 135 244 292 37 297 331 316 303 293 327 293 296 351 324 319 324 314
25 26 14 13 7 5 3 3 359 1 356 349 341 36 106 138 119 9 0 358 359 21 343 351 267 229 247 217 296 262 297 295 314 353 300 289 306 287 280 289 342 326 341 335 342
26 14 9 7 2 3 2 4 1 4 348 341 328 68 4 142 91 12 18 7 354 1 40 40 282 299 235 223 236 249 264 274 274 278 278 286 276 272 274 321 314 327 333 350 342
353 5 2 2 359 353 360 7 5 23 347 340 70 74 258 158 49 12 44 13 17 1 63 14 344 318 216 257 259 360 288 276 276 274 271 275 281 292 168 332 293 313 321 335 342
347 349 353 354 351 346 348 2 36 33 42 89 104 0 36 79 58 55 71 39 18 56 97 58 12 271 324 252 313 288 287 274 245 242 268 287 263 231 355 314 291 303 313 325 330
335 338 350 348 344 347 358 32 85 78 93 103 73 280 77 109 90 61 72 67 45 48 92 44 27 52 310 330 244 263 258 264 133 228 176 245 280 144 325 313 303 313 318 321 326
318 342 335 344 342 346 42 119 110 105 94 40 349 285 118 130 136 49 57 99 82 52 61 66 43 298 214 243 254 208 274 232 263 185 287 226 284 137 223 304 299 314 324 327 332
310 328 337 334 341 23 114 121 113 67 9 8 37 200 167 112 69 64 71 93 248 150 159 194 206 243 226 227 263 305 248 251 265 150 251 267 267 272 254 291 290 307 321 334 341
284 318 329 335 357 94 123 124 179 148 57 42 42 72 101 87 81 94 79 141 194 242 243 150 238 233 264 246 311 292 283 278 280 287 294 269 276 282 268 253 262 285 319 342 356
258 294 325 337 94 122 150 248 32 58 111 58 68 96 87 32 162 130 196 235 229 246 211 216 246 5 341 283 264 263 269 271 284 288 267 282 280 277 261 236 260 274 296 356 2
258 291 333 349 121 89 117 127 148 134 230 98 84 136 98 258 245 144 249 40 265 241 236 263 20 69 230 245 260 257 267 279 282 300 270 273 281 260 236 195 209 215 207 35 27
228 277 331 142 123 146 116 157 147 110 228 150 168 100 174 204 176 71 31 313 225 280 268 268 52 252 265 266 270 285 313 269 277 288 279 141 289 290 203 205 210 197 193 109 51
240 258 314 168 141 157 155 148 137 274 277 99 129 40 149 231 117 113 32 194 266 250 245 66 213 225 248 255 227 288 349 284 278 278 290 266 248 276 225 217 206 196 175 135 70
207 249 205 121 110 154 147 137 173 66 244 141 128 159 170 168 127 128 173 193 348 269 244 268 102 263 245 306 250 2 283 265 268 276 259 258 235 278 293 283 210 173 182 155 105
208 241 195 163 141 155 144 183 64 204 39 172 171 182 204 157 166 200 196 198 223 245 228 219 219 213 249 253 191 227 264 283 242 220 256 23 289 250 315 12 311 179 175 156 139
207 207 166 146 148 149 184 142 210 80 185 136 140 155 191 161 182 185 214 248 210 235 289 279 239 203 159 242 330 217 219 260 287 291 311 108 251 293 21 350 246 161 159 154 155
188 159 143 157 156 161 216 165 218 168 147 159 128 173 191 194 248 199 223 264 358 208 234 274 232 113 30 335 276 105 223 281 283 265 272 264 274 200 93 119 157 169 182 177 166
168 161 151 162 156 199 92 244 176 127 142 175 193 199 180 178 188 201 200 115 176 252 223 63 283 70 72 248 225 242 9 252 206 270 273 275 278 271 186 202 204 198 202 187 179
165 174 170 155 147 184 207 222 181 171 184 195 193 137 180 171 202 202 177 128 191 152 212 230 247 169 181 208 269 200 233 225 279 263 276 280 271 44 276 218 210 214 209 198 191
173 169 174 160 151 157 201 188 127 163 186 147 141 119 174 165 178 221 220 290 183 174 180 158 248 264 274 59 309 282 276 266 248 264 251 260 270 155 199 279 233 217 213 203 199
148 109 84 328 188 202 147 156 191 156 187 175 161 102 91 155 205 203 201 144 191 199 173 186 199 289 253 232 218 246 243 241 271 287 262 265 274 105 285 275 257 240 216 199 214
149 134 131 225 292 202 158 181 173 140 152 143 119 108 127 129 84 190 210 160 196 228 82 156 213 240 264 284 328 275 264 254 232 261 268 259 273 277 240 241 246 242 231 217 220
185 166 177 181 221 197 200 157 151 167 190 172 148 206 161 146 166 216 183 168 194 183 178 230 243 229 258 274 285 278 273 267 253 246 255 269 273 268 284 264 241 250 246 225 225
149 158 149 114 152 179 192 201 175 160 160 190 203 190 181 173 194 186 154 193 192 171 187 190 259 316 278 271 274 275 268 268 259 255 258 260 266 270 278 273 241 228 256 259 250
140 123 170 158 154 174 207 179 194 145 211 116 192 144 197 219 111 68 94 110 153 172 189 179 217 193 271 21 308 274 267 260 256 251 251 259 262 297 286 281 300 259 241 246 235
Height
841 839 839 837 835 833 832 831 830 828 826 827 826 824 824 823 823 824 826 829 825 822 821 822 821 818 815 814 814 811 808 806 810 812 807 806 810 803 803 804 800 797 797 796 797
840 840 837 836 834 834 832 831 828 826 825 825 825 824 823 823 826 827 830 827 825 822 822 821 818 818 811 815 814 810 808 808 811 809 811 808 809 808 809 803 799 796 796 796 797
838 837 837 835 834 833 831 829 828 827 826 824 824 823 822 824 825 831 831 829 825 824 824 824 822 818 815 815 816 814 809 813 810 812 814 813 811 807 808 807 801 808 804 802 799
840 837 836 834 833 832 830 828 828 827 827 826 825 823 822 823 821 830 830 830 829 825 825 825 824 819 818 819 819 819 816 816 815 816 819 816 810 811 805 803 808 806 805 803 801
838 837 835 833 832 830 829 828 827 827 826 825 826 826 825 821 828 829 829 830 830 829 827 824 825 822 819 819 820 819 813 817 816 817 817 815 814 811 805 803 808 806 806 805 806
839 835 834 832 831 830 828 827 827 826 826 825 826 826 827 821 831 830 830 831 831 830 828 827 826 827 822 822 823 821 822 816 814 814 814 818 811 813 802 809 808 807 805 805 805
839 836 834 833 830 830 829 826 826 826 825 826 825 828 826 831 831 830 829 832 833 831 830 830 830 828 828 826 826 824 823 812 811 812 813 817 810 807 809 810 806 806 806 806 805
838 837 832 831 831 829 828 827 828 827 826 826 827 828 829 833 834 832 832 832 835 834 831 832 832 832 830 832 827 825 821 811 805 814 812 816 803 801 812 811 806 806 806 806 806
837 834 836 830 829 829 827 827 828 828 829 828 829 827 830 833 834 833 832 833 836 836 834 833 833 832 833 828 822 820 811 805 804 812 815 815 803 799 809 811 807 806 807 808 807
836 833 832 832 828 828 829 829 828 830 831 830 831 830 835 833 836 835 834 835 835 835 834 832 830 829 826 825 816 808 813 808 813 810 815 812 805 796 798 813 808 808 809 809 811
834 833 831 830 828 829 830 831 832 830 830 833 834 833 835 838 837 837 837 835 836 835 830 833 829 822 812 815 819 823 821 817 808 808 822 810 800 795 793 808 807 808 810 811 812
832 831 829 830 827 828 829 828 829 831 830 834 834 835 836 837 836 838 838 836 835 830 834 834 825 820 828 830 831 826 823 815 808 810 821 808 798 791 788 800 807 810 812 815 815
832 830 829 828 827 828 829 831 830 829 823 835 835 834 836 838 834 836 840 836 835 832 833 828 826 832 833 831 833 827 825 819 816 814 812 811 796 780 779 799 810 815 817 818 818
830 830 828 828 830 828 829 830 830 832 819 832 833 837 837 836 836 840 841 840 838 835 834 831 830 835 834 833 828 828 817 821 823 823 815 815 803 780 776 800 808 812 813 817 819
830 828 827 827 829 827 831 830 831 835 819 835 835 838 838 835 837 840 842 840 836 835 842 827 834 835 834 828 827 822 825 824 824 822 816 807 816 777 781 789 798 807 814 819 822
828 828 827 828 827 829 829 831 834 831 814 839 836 834 836 836 836 839 839 841 843 840 837 833 838 836 828 829 831 831 829 827 826 824 825 802 799 782 773 787 785 803 814 820 822
828 827 827 827 828 828 830 832 831 823 841 839 833 835 831 834 838 837 836 837 833 838 828 829 830 831 834 832 833 835 830 828 825 835 816 807 803 783 784 793 794 805 814 820 823
827 827 826 826 828 829 833 825 826 829 834 838 834 834 830 833 834 838 835 832 834 840 833 822 819 833 832 830 825 828 831 829 821 806 802 816 812 779 807 806 803 808 816 821 822
825 826 827 826 827 830 829 831 810 818 831 832 838 837 838 841 839 838 834 828 836 840 834 824 823 836 839 836 834 829 836 830 834 831 846 804 789 809 811 814 815 818 820 819 822
824 825 826 826 828 831 835 816 823 821 825 826 816 827 828 847 838 836 829 837 841 848 848 840 837 838 840 840 836 835 833 837 838 839 821 794 786 784 803 811 816 818 816 817 821
823 820 827 827 830 827 826 821 825 826 827 822 823 838 830 843 837 840 832 845 846 850 848 844 846 833 839 833 824 834 839 841 832 825 818 809 788 792 797 798 809 811 812 814 820
818 821 827 827 829 836 826 827 826 829 833 830 826 827 833 841 843 838 832 838 848 847 848 844 848 841 828 833 841 842 834 830 835 823 804 811 793 797 801 804 802 806 809 812 818
813 823 828 828 822 827 834 826 824 830 831 831 830 831 843 845 839 844 842 853 851 849 853 852 852 845 827 839 841 844 831 835 835 850 826 821 795 806 811 809 807 806 809 814 819
810 820 829 829 826 817 822 822 827 831 828 831 836 839 845 853 859 854 849 855 855 853 857 855 855 846 833 823 830 841 834 834 845 842 819 809 803 799 804 810 809 809 809 813 819
802 802 810 820 820 818 814 816 823 830 830 830 838 832 837 854 862 859 851 857 858 857 858 858 860 856 850 844 844 842 842 837 838 837 838 810 815 805 806 810 813 812 809 810 814
795 801 810 814 808 813 815 819 817 825 825 828 831 825 834 840 833 846 853 856 849 861 863 866 852 863 863 847 847 849 840 835 829 829 825 818 809 802 801 802 807 813 816 814 817
785 791 789 808 808 808 801 810 809 814 825 821 823 827 836 837 840 843 846 847 850 857 862 864 857 870 847 860 861 852 828 819 819 818 825 824 805 807 808 808 810 810 814 816 817